This demonstration page uses our WeatherBlox Daily Observations layout. Learn more.

Left ArrowRight Arrow

Hourly Observations for August 17, 2022

Temp ( °F °C ) Dew Point ( °F °C ) Humidity (%) Winds ( mph kmh ) Pressure ( in mb ) Visibility ( mi km ) Precip ( " mm )
12:53 am 00:53 Clear 60 15.6 47 8.3 62 62 VRB 5 7 30.07 1018 10 16 0.00 0.00
1:53 am 01:53 Clear 60 15.6 46 7.8 60 60 ENE 8 13 30.06 1018 10 16 0.00 0.00
2:53 am 02:53 Clear 56 13.3 46 7.8 69 69 E 8 13 30.08 1019 10 16 0.00 0.00
3:53 am 03:53 Clear 57 13.9 46 7.8 67 67 NE 7 11 30.10 1019 10 16 0.00 0.00
4:53 am 04:53 Clear 55 12.8 46 7.8 72 72 E 9 15 30.10 1019 10 16 0.00 0.00
5:53 am 05:53 Clear 55 12.8 45 7.2 69 69 ENE 6 9 30.11 1020 10 16 0.00 0.00
6:53 am 06:53 Sunny 53 11.7 45 7.2 74 74 W 3 6 30.15 1021 10 16 0.00 0.00
7:53 am 07:53 Sunny 58 14.4 46 7.8 65 65 ENE 12 19 30.16 1021 10 16 0.00 0.00
8:53 am 08:53 Sunny 64 17.8 46 7.8 52 52 ENE 8 13 30.16 1021 10 16 0.00 0.00
9:53 am 09:53 Sunny 72 22.2 46 7.8 40 40 NE 7 11 30.13 1020 10 16 0.00 0.00
10:53 am 10:53 Sunny 78 25.6 42 5.6 28 28 ENE 9 15 30.11 1020 10 16 0.00 0.00
11:53 am 11:53 Sunny 81 27.2 33 0.6 18 18 ENE 7 11 30.10 1019 10 16 0.00 0.00
12:53 pm 12:53 Sunny 84 28.9 38 3.3 19 19 SSE 8 13 30.06 1018 10 16 0.00 0.00
1:53 pm 13:53 Sunny 86 30 34 1.1 16 16 E 5 7 30.04 1017 10 16 0.00 0.00
2:53 pm 14:53 Sunny 87 30.6 32 0 14 14 N 6 9 30.02 1017 10 16 0.00 0.00
3:53 pm 15:53 Sunny 87 30.6 31 -0.6 13 13 S 5 7 30.00 1016 10 16 0.00 0.00
4:53 pm 16:53 Sunny 87 30.6 35 1.7 16 16 SE 8 13 29.99 1016 10 16 0.00 0.00
5:53 pm 17:53 Sunny 88 31.1 29 -1.7 12 12 VRB 5 7 29.97 1015 10 16 0.00 0.00
6:53 pm 18:53 Sunny 86 30 29 -1.7 13 13 Calm 29.98 1015 10 16 0.00 0.00
7:53 pm 19:53 Sunny 80 26.7 35 1.7 20 20 ENE 8 13 30.00 1016 10 16 0.00 0.00
8:53 pm 20:53 Clear 69 20.6 37 2.8 31 31 ESE 7 11 30.04 1017 10 16 0.00 0.00
9:53 pm 21:53 Clear 63 17.2 40 4.4 43 43 Calm 30.05 1018 10 16 0.00 0.00
10:53 pm 22:53 Clear 58 14.4 41 5 53 53 SE 5 7 30.06 1018 10 16 0.00 0.00
11:53 pm 23:53 Clear 58 14.4 39 3.9 49 49 E 3 6 30.05 1018 10 16 0.00 0.00

Powered by AerisWeather